Time,TemperatureF,DewpointF,PressureIn,WindDirection,WindDirectionDegrees,WindSpeedMPH,WindSpeedGustMPH,Humidity,HourlyPrecipIn,Conditions,Clouds,dailyrainin,SolarRadiationWatts/m^2,SoftwareType,DateUTC
2013-09-03 00:03:00,53.0,49.0,-100.00,North,2,0.0,6.0,86,0.00,,,0.00,0.000000,,2013-09-03 05:03:00,
2013-09-03 00:12:00,50.0,48.0,-100.00,NNE,18,0.0,3.0,92,0.00,,,0.00,0.000000,,2013-09-03 05:12:00,
2013-09-03 00:43:00,50.0,48.0,-100.00,NNE,18,0.0,3.0,92,0.00,,,0.00,0.000000,,2013-09-03 05:43:00,
2013-09-03 00:52:00,50.0,48.0,-100.00,NNE,18,0.0,3.0,92,0.00,,,0.00,0.000000,,2013-09-03 05:52:00,
2013-09-03 01:02:00,50.0,48.0,-100.00,NNE,18,0.0,3.0,92,0.00,,,0.00,0.000000,,2013-09-03 06:02:00,
2013-09-03 01:12:00,48.0,46.0,-100.00,NNE,22,0.0,2.0,93,0.00,,,0.00,0.000000,,2013-09-03 06:12:00,
2013-09-03 01:43:00,48.0,46.0,-100.00,NNE,22,0.0,2.0,93,0.00,,,0.00,0.000000,,2013-09-03 06:43:00,
2013-09-03 01:52:00,48.0,46.0,-100.00,NNE,22,0.0,2.0,93,0.00,,,0.00,0.000000,,2013-09-03 06:52:00,
2013-09-03 02:02:00,48.0,46.0,-100.00,NNE,22,0.0,2.0,93,0.00,,,0.00,0.000000,,2013-09-03 07:02:00,
2013-09-03 02:42:00,46.0,44.0,-100.00,NNE,22,0.0,0.0,93,0.00,,,0.00,0.000000,,2013-09-03 07:42:00,
2013-09-03 02:53:00,46.0,44.0,-100.00,NNE,22,0.0,0.0,93,0.00,,,0.00,0.000000,,2013-09-03 07:53:00,
2013-09-03 03:03:00,46.0,44.0,-100.00,NNE,22,0.0,0.0,93,0.00,,,0.00,0.000000,,2013-09-03 08:03:00,
2013-09-03 03:11:00,46.0,44.0,-100.00,NNE,22,0.0,0.0,93,0.00,,,0.00,0.000000,,2013-09-03 08:11:00,
2013-09-03 03:42:00,44.0,42.0,-100.00,NNE,22,0.0,1.0,93,0.00,,,0.00,0.000000,,2013-09-03 08:42:00,
2013-09-03 03:52:00,44.0,42.0,-100.00,NNE,22,0.0,1.0,93,0.00,,,0.00,0.000000,,2013-09-03 08:52:00,
2013-09-03 04:02:00,44.0,42.0,-100.00,NNE,22,0.0,1.0,93,0.00,,,0.00,0.000000,,2013-09-03 09:02:00,
2013-09-03 04:11:00,44.0,42.0,-100.00,NNE,22,0.0,1.0,93,0.00,,,0.00,0.000000,,2013-09-03 09:11:00,
2013-09-03 04:12:00,42.0,40.0,-100.00,NNE,22,0.0,0.0,93,0.00,,,0.00,0.000000,,2013-09-03 09:12:00,
2013-09-03 04:43:00,42.0,40.0,-100.00,NNE,22,0.0,0.0,93,0.00,,,0.00,0.000000,,2013-09-03 09:43:00,
2013-09-03 04:53:00,42.0,40.0,-100.00,NNE,22,0.0,0.0,93,0.00,,,0.00,0.000000,,2013-09-03 09:53:00,
2013-09-03 05:03:00,42.0,40.0,-100.00,NNE,22,0.0,0.0,93,0.00,,,0.00,0.000000,,2013-09-03 10:03:00,
2013-09-03 05:12:00,41.0,39.0,-100.00,NNE,22,0.0,1.0,93,0.00,,,0.00,0.000000,,2013-09-03 10:12:00,
2013-09-03 05:42:00,41.0,39.0,-100.00,NNE,22,0.0,1.0,93,0.00,,,0.00,0.000000,,2013-09-03 10:42:00,
2013-09-03 05:53:00,41.0,39.0,-100.00,NNE,22,0.0,1.0,93,0.00,,,0.00,0.000000,,2013-09-03 10:53:00,
2013-09-03 06:02:00,41.0,39.0,-100.00,NNE,22,0.0,1.0,93,0.00,,,0.00,0.000000,,2013-09-03 11:02:00,
2013-09-03 06:12:00,40.0,38.0,-100.00,NE,51,0.0,1.0,93,0.00,,,0.00,0.000000,,2013-09-03 11:12:00,
2013-09-03 06:43:00,40.0,38.0,-100.00,NE,51,0.0,1.0,93,0.00,,,0.00,0.000000,,2013-09-03 11:43:00,
2013-09-03 06:52:00,40.0,38.0,-100.00,NE,51,0.0,1.0,93,0.00,,,0.00,0.000000,,2013-09-03 11:52:00,
2013-09-03 07:02:00,40.0,38.0,-100.00,NE,51,0.0,1.0,93,0.00,,,0.00,0.000000,,2013-09-03 12:02:00,
2013-09-03 07:42:00,41.0,39.0,-100.00,ESE,102,0.0,1.0,93,0.00,,,0.00,11.000000,,2013-09-03 12:42:00,
2013-09-03 07:52:00,41.0,39.0,-100.00,ESE,102,0.0,1.0,93,0.00,,,0.00,11.000000,,2013-09-03 12:52:00,
2013-09-03 08:02:00,41.0,39.0,-100.00,ESE,102,0.0,1.0,93,0.00,,,0.00,11.000000,,2013-09-03 13:02:00,
2013-09-03 08:11:00,41.0,39.0,-100.00,ESE,102,0.0,1.0,93,0.00,,,0.00,11.000000,,2013-09-03 13:11:00,
2013-09-03 08:42:00,54.0,50.0,-100.00,NW,311,2.0,5.0,86,-99.99,,,0.00,185.000000,,2013-09-03 13:42:00,
2013-09-03 08:52:00,54.0,50.0,-100.00,NW,311,2.0,5.0,86,-99.99,,,0.00,185.000000,,2013-09-03 13:52:00,
2013-09-03 09:02:00,54.0,50.0,-100.00,NW,311,2.0,5.0,86,-99.99,,,0.00,185.000000,,2013-09-03 14:02:00,
2013-09-03 09:11:00,54.0,50.0,-100.00,NW,311,2.0,5.0,86,-99.99,,,0.00,185.000000,,2013-09-03 14:11:00,
2013-09-03 09:42:00,60.0,50.0,-100.00,West,265,3.0,8.0,70,0.00,,,0.00,361.000000,,2013-09-03 14:42:00,
2013-09-03 09:52:00,60.0,50.0,-100.00,West,265,3.0,8.0,70,0.00,,,0.00,361.000000,,2013-09-03 14:52:00,
2013-09-03 10:02:00,60.0,50.0,-100.00,West,265,3.0,8.0,70,0.00,,,0.00,361.000000,,2013-09-03 15:02:00,
2013-09-03 10:12:00,63.0,49.0,-100.00,WNW,300,6.0,10.0,61,0.00,,,0.00,542.000000,,2013-09-03 15:12:00,
2013-09-03 10:43:00,63.0,49.0,-100.00,WNW,300,6.0,10.0,61,0.00,,,0.00,542.000000,,2013-09-03 15:43:00,
2013-09-03 10:54:00,63.0,49.0,-100.00,WNW,300,6.0,10.0,61,0.00,,,0.00,542.000000,,2013-09-03 15:54:00,
2013-09-03 11:04:00,63.0,49.0,-100.00,WNW,300,6.0,10.0,61,0.00,,,0.00,542.000000,,2013-09-03 16:04:00,
2013-09-03 11:12:00,66.0,49.0,-100.00,SW,236,5.0,10.0,55,0.00,,,0.00,677.000000,,2013-09-03 16:12:00,
2013-09-03 11:43:00,66.0,49.0,-100.00,SW,236,5.0,10.0,55,0.00,,,0.00,677.000000,,2013-09-03 16:43:00,
2013-09-03 11:54:00,66.0,49.0,-100.00,SW,236,5.0,10.0,55,0.00,,,0.00,677.000000,,2013-09-03 16:54:00,
2013-09-03 12:03:00,66.0,49.0,-100.00,SW,236,5.0,10.0,55,0.00,,,0.00,677.000000,,2013-09-03 17:03:00,
2013-09-03 12:12:00,70.0,49.0,-100.00,West,272,4.0,9.0,48,0.00,,,0.00,783.000000,,2013-09-03 17:12:00,
2013-09-03 12:43:00,70.0,49.0,-100.00,West,272,4.0,9.0,48,0.00,,,0.00,783.000000,,2013-09-03 17:43:00,
2013-09-03 12:52:00,70.0,49.0,-100.00,West,272,4.0,9.0,48,0.00,,,0.00,783.000000,,2013-09-03 17:52:00,
2013-09-03 13:02:00,70.0,49.0,-100.00,West,272,4.0,9.0,48,0.00,,,0.00,783.000000,,2013-09-03 18:02:00,
2013-09-03 13:43:00,73.0,50.0,-100.00,WNW,301,4.0,11.0,45,0.00,,,0.00,823.000000,,2013-09-03 18:43:00,
2013-09-03 13:52:00,73.0,50.0,-100.00,WNW,301,4.0,11.0,45,0.00,,,0.00,823.000000,,2013-09-03 18:52:00,
2013-09-03 14:02:00,73.0,50.0,-100.00,WNW,301,4.0,11.0,45,0.00,,,0.00,823.000000,,2013-09-03 19:02:00,
2013-09-03 14:11:00,73.0,50.0,-100.00,WNW,301,4.0,11.0,45,0.00,,,0.00,823.000000,,2013-09-03 19:11:00,
2013-09-03 14:42:00,74.0,49.0,-100.00,West,265,4.0,11.0,41,0.00,,,0.00,688.000000,,2013-09-03 19:42:00,
2013-09-03 14:52:00,74.0,49.0,-100.00,West,265,4.0,11.0,41,0.00,,,0.00,688.000000,,2013-09-03 19:52:00,
2013-09-03 15:02:00,74.0,49.0,-100.00,West,265,4.0,11.0,41,0.00,,,0.00,688.000000,,2013-09-03 20:02:00,
2013-09-03 15:11:00,74.0,49.0,-100.00,West,265,4.0,11.0,41,0.00,,,0.00,688.000000,,2013-09-03 20:11:00,
2013-09-03 15:12:00,76.0,49.0,-100.00,NW,310,6.0,11.0,38,0.00,,,0.00,668.000000,,2013-09-03 20:12:00,
2013-09-03 15:42:00,76.0,49.0,-100.00,NW,310,6.0,11.0,38,0.00,,,0.00,668.000000,,2013-09-03 20:42:00,
2013-09-03 15:53:00,76.0,49.0,-100.00,NW,310,6.0,11.0,38,0.00,,,0.00,668.000000,,2013-09-03 20:53:00,
2013-09-03 16:01:00,76.0,49.0,-100.00,NW,310,6.0,11.0,38,0.00,,,0.00,668.000000,,2013-09-03 21:01:00,
2013-09-03 16:12:00,76.0,45.0,-100.00,West,269,6.0,12.0,33,0.00,,,0.00,604.000000,,2013-09-03 21:12:00,
2013-09-03 16:44:00,76.0,45.0,-100.00,West,269,6.0,12.0,33,0.00,,,0.00,604.000000,,2013-09-03 21:44:00,
2013-09-03 16:54:00,76.0,45.0,-100.00,West,269,6.0,12.0,33,0.00,,,0.00,604.000000,,2013-09-03 21:54:00,
2013-09-03 17:04:00,76.0,45.0,-100.00,West,269,6.0,12.0,33,0.00,,,0.00,604.000000,,2013-09-03 22:04:00,
2013-09-03 17:12:00,76.0,47.0,-100.00,West,276,5.0,13.0,36,0.00,,,0.00,454.000000,,2013-09-03 22:12:00,
2013-09-03 17:43:00,76.0,47.0,-100.00,West,276,5.0,13.0,36,0.00,,,0.00,454.000000,,2013-09-03 22:43:00,
2013-09-03 17:53:00,76.0,47.0,-100.00,West,276,5.0,13.0,36,0.00,,,0.00,454.000000,,2013-09-03 22:53:00,
2013-09-03 18:04:00,76.0,47.0,-100.00,West,276,5.0,13.0,36,0.00,,,0.00,454.000000,,2013-09-03 23:04:00,
2013-09-03 18:12:00,76.0,48.0,-100.00,WNW,289,4.0,10.0,37,0.00,,,0.00,284.000000,,2013-09-03 23:12:00,
2013-09-03 18:42:00,76.0,48.0,-100.00,WNW,289,4.0,10.0,37,0.00,,,0.00,284.000000,,2013-09-03 23:42:00,
2013-09-03 18:54:00,76.0,48.0,-100.00,WNW,289,4.0,10.0,37,0.00,,,0.00,284.000000,,2013-09-03 23:54:00,
2013-09-03 19:02:00,76.0,48.0,-100.00,WNW,289,4.0,10.0,37,0.00,,,0.00,284.000000,,2013-09-04 00:02:00,
2013-09-03 19:42:00,70.0,49.0,-100.00,SW,219,2.0,8.0,47,0.00,,,0.00,108.000000,,2013-09-04 00:42:00,
2013-09-03 19:52:00,70.0,49.0,-100.00,SW,219,2.0,8.0,47,0.00,,,0.00,108.000000,,2013-09-04 00:52:00,
2013-09-03 20:01:00,70.0,49.0,-100.00,SW,219,2.0,8.0,47,0.00,,,0.00,108.000000,,2013-09-04 01:01:00,
2013-09-03 20:11:00,70.0,49.0,-100.00,SW,219,2.0,8.0,47,0.00,,,0.00,108.000000,,2013-09-04 01:11:00,
2013-09-03 20:42:00,64.0,48.0,-100.00,SW,226,1.0,5.0,57,0.00,,,0.00,3.000000,,2013-09-04 01:42:00,
2013-09-03 20:53:00,64.0,48.0,-100.00,SW,226,1.0,5.0,57,0.00,,,0.00,3.000000,,2013-09-04 01:53:00,
2013-09-03 21:02:00,64.0,48.0,-100.00,SW,226,1.0,5.0,57,0.00,,,0.00,3.000000,,2013-09-04 02:02:00,
2013-09-03 21:11:00,64.0,48.0,-100.00,SW,226,1.0,5.0,57,0.00,,,0.00,3.000000,,2013-09-04 02:11:00,
2013-09-03 21:43:00,57.0,51.0,-100.00,ESE,117,0.0,3.0,80,0.00,,,0.00,0.000000,,2013-09-04 02:43:00,
2013-09-03 21:52:00,57.0,51.0,-100.00,ESE,117,0.0,3.0,80,0.00,,,0.00,0.000000,,2013-09-04 02:52:00,
2013-09-03 22:03:00,57.0,51.0,-100.00,ESE,117,0.0,3.0,80,0.00,,,0.00,0.000000,,2013-09-04 03:03:00,
2013-09-03 22:11:00,57.0,51.0,-100.00,ESE,117,0.0,3.0,80,0.00,,,0.00,0.000000,,2013-09-04 03:11:00,
2013-09-03 22:12:00,53.0,50.0,-100.00,SE,129,0.0,2.0,89,0.00,,,0.00,0.000000,,2013-09-04 03:12:00,
2013-09-03 22:44:00,53.0,50.0,-100.00,SE,129,0.0,2.0,89,0.00,,,0.00,0.000000,,2013-09-04 03:44:00,
2013-09-03 22:54:00,53.0,50.0,-100.00,SE,129,0.0,2.0,89,0.00,,,0.00,0.000000,,2013-09-04 03:54:00,
2013-09-03 23:04:00,53.0,50.0,-100.00,SE,129,0.0,2.0,89,0.00,,,0.00,0.000000,,2013-09-04 04:04:00,
2013-09-03 23:12:00,51.0,48.0,-100.00,ESE,119,0.0,0.0,91,0.00,,,0.00,0.000000,,2013-09-04 04:12:00,
2013-09-03 23:44:00,51.0,48.0,-100.00,ESE,119,0.0,0.0,91,0.00,,,0.00,0.000000,,2013-09-04 04:44:00,
2013-09-03 23:54:00,51.0,48.0,-100.00,ESE,119,0.0,0.0,91,0.00,,,0.00,0.000000,,2013-09-04 04:54:00,